RYR369 UBBB-LKPR

Flight info

Callsign RYR369
Flight time N/A
Altitude 35000
Route AGDA2D AGDAM M747 LUSAL N199 EDATA M11 REBLO UM11 CRM UL746 ODERO L746 LUGEB EKSUN RUSAG VERIG AMRAX MAVOR BODAL VLM VLM4S
Aircraft B738/M-SDE2E3FGHIRWXY/L

Departure

Time 2025-09-05 12:41
Airport Heydar Aliyev International Airport (UBBB)

Arrival

Time N/A
Airport Václav Havel Airport Prague (LKPR)
Time Latitude Longitude Altitude Speed Heading
2025-09-05 12:29 40.46210 50.04812 18 ft 0 kts 57°
2025-09-05 12:34 40.46203 50.04796 18 ft 3 kts 57°
2025-09-05 12:34 40.46181 50.04753 18 ft 3 kts 57°
2025-09-05 12:35 40.46179 50.04750 18 ft 0 kts 57°
2025-09-05 12:36 40.46072 50.04829 18 ft 8 kts 148°
2025-09-05 12:37 40.45955 50.04806 18 ft 10 kts 199°
2025-09-05 12:37 40.45733 50.04668 18 ft 22 kts 237°
2025-09-05 12:38 40.45633 50.04327 18 ft 14 kts 258°
2025-09-05 12:38 40.45629 50.04292 18 ft 1 kts 263°
2025-09-05 12:39 40.45626 50.04146 18 ft 1 kts 338°
2025-09-05 12:40 40.46400 50.03901 18 ft 121 kts 347°
2025-09-05 12:40 40.48708 50.03174 423 ft 204 kts 346°
2025-09-05 12:40 40.50104 50.02734 1353 ft 207 kts 346°
2025-09-05 12:41 40.52932 50.01843 2662 ft 212 kts 346°
2025-09-05 12:41 40.55813 50.01065 3523 ft 219 kts 355°
2025-09-05 12:42 40.58933 50.00825 4279 ft 231 kts 353°
2025-09-05 12:42 40.62205 50.01546 4819 ft 262 kts 38°
2025-09-05 12:43 40.63319 50.06068 5655 ft 284 kts 100°
2025-09-05 12:44 40.61479 50.13652 7234 ft 296 kts 105°
2025-09-05 12:44 40.61002 50.16294 7805 ft 299 kts 103°
2025-09-05 12:44 40.60095 50.21676 8947 ft 304 kts 103°
2025-09-05 12:45 40.59186 50.27157 10089 ft 309 kts 103°
2025-09-05 12:46 40.56768 50.35385 11091 ft 343 kts 119°
2025-09-05 12:46 40.55672 50.38249 11304 ft 359 kts 118°
2025-09-05 12:46 40.52756 50.43701 11801 ft 377 kts 144°
2025-09-05 12:47 40.47957 50.46034 12860 ft 370 kts 181°
2025-09-05 12:48 40.40265 50.44932 14523 ft 378 kts 184°
2025-09-05 12:48 40.37617 50.44948 15077 ft 382 kts 182°
2025-09-05 12:49 40.29611 50.44569 16667 ft 384 kts 200°
2025-09-05 12:49 40.27238 50.43132 17158 ft 380 kts 217°
2025-09-05 12:50 40.23570 50.34447 18600 ft 378 kts 269°
2025-09-05 12:50 40.23784 50.31006 19073 ft 381 kts 278°
2025-09-05 12:50 40.24464 50.24096 19991 ft 386 kts 275°
2025-09-05 12:51 40.24996 50.13495 21274 ft 394 kts 272°
2025-09-05 12:51 40.25109 50.09900 21683 ft 397 kts 272°
2025-09-05 12:52 40.25327 50.02625 21987 ft 403 kts 272°
2025-09-05 12:53 40.25699 49.91698 22002 ft 399 kts 272°
2025-09-05 12:53 40.25814 49.88072 22003 ft 399 kts 272°
2025-09-05 12:53 40.26064 49.80808 22003 ft 399 kts 272°
2025-09-05 12:54 40.26276 49.73547 22003 ft 399 kts 272°
2025-09-05 12:54 40.26466 49.66326 22003 ft 399 kts 272°
2025-09-05 12:55 40.26649 49.59064 22003 ft 399 kts 272°
2025-09-05 12:55 40.26830 49.51798 22003 ft 399 kts 272°
2025-09-05 12:56 40.27011 49.44579 22004 ft 399 kts 271°
2025-09-05 12:56 40.26906 49.37321 22003 ft 399 kts 267°
2025-09-05 12:57 40.26599 49.26384 22400 ft 404 kts 271°
2025-09-05 12:58 40.27395 49.19096 23232 ft 407 kts 282°
2025-09-05 12:58 40.29053 49.11960 23946 ft 413 kts 288°
2025-09-05 12:58 40.29998 49.08400 24292 ft 415 kts 288°
2025-09-05 13:00 40.37409 48.79141 26751 ft 432 kts 287°